Regional Weather Roundup
Issued by NWS

Current Version | Previous Version | Text Only | Print | Product List | Glossary On
Versions: 1 2 3 4 5 6 7 8 9 10 11 12 13 14 15 16 17 18 19 20 21 22 23 24 25 26 27 28 29 30 31 32 33 34 35 36 37 38 39 40 41 42 43 44 45 46 47 48 49 50
000
ASCA42 TJSJ 010011
RWRPR
PUERTO RICO/U.S. VIRGIN ISLANDS HOURLY WEATHER ROUNDUP
NATIONAL WEATHER SERVICE SAN JUAN PR
800 PM AST TUE SEP 30 2014

PRZ001-004-010100-
PUERTO RICO

CITY           SKY/WX    TMP DP  RH WIND       PRES   REMARKS
SAN JUAN LMM   CLEAR     84  75  74 SE6       29.98R HX  92
AGUADILLA      MOCLDY    81  72  74 CALM      30.00R
CEIBA          CLEAR     81  75  83 SW3       30.01R
$$

PRZ006-007-010100-
U.S. VIRGIN ISLANDS

CITY           SKY/WX    TMP DP  RH WIND       PRES   REMARKS
$$

HOURLY WEATHER ROUNDUP FOR THE NEWS MEDIA

CITY           SKY/WX    TMP DP  RH WIND       PRES   REMARKS
MIAMI          MOCLDY    84  74  71 W6        29.85R HX  91
ORLANDO        MOCLDY    78  73  84 CALM      29.85R
NEW YORK       CLOUDY    65  58  78 NE6       29.96R
NEWARK         MOCLDY    67  59  75 NE8       29.95R
CHICAGO        DRIZZLE   52  50  93 NE6       30.01F
HARTFORD       CLOUDY    56  55  97 N10       29.99R
BOSTON         CLOUDY    56  54  93 NE7       30.04R
DALLAS         PTCLDY    88  64  44 S15       29.75S
PHILADELPHIA   MOCLDY    68  59  73 E9        29.94R


USA.gov is the U.S. government's official web portal to all federal, state and local government web resources and services.